| time (UTC) | temp F | wind direction | speed MPH | gust MPH | rain 1hr in | rain 24hr in | rain mn in | humidity % | barometer mb |
| 20260905200044 | 94 | 246 | 1.0 | 7.0 | 0.00 | 0.06 | 0.03 | 56 | 1012.7 |
| 20260905195819 | 94 | 245 | 1.0 | 6.0 | 0.00 | 0.12 | 0.03 | 58 | 1012.8 |
| 20260905195323 | 94 | 240 | 2.0 | 6.0 | 0.00 | 0.12 | 0.03 | 58 | 1013.0 |
| 20260905194827 | 94 | 208 | 2.0 | 5.0 | 0.00 | 0.12 | 0.03 | 58 | 1013.1 |
| 20260905194501 | 93 | 32 | 1.0 | 4.0 | 0.00 | 0.12 | 0.03 | 60 | 1013.1 |
| 20260905194309 | 93 | 239 | 1.0 | 5.0 | 0.00 | 0.12 | 0.03 | 58 | 1013.0 |
| 20260905193814 | 94 | 96 | 2.0 | 5.0 | 0.00 | 0.12 | 0.03 | 57 | 1013.0 |
| 20260905193320 | 94 | 203 | 2.0 | 4.0 | 0.00 | 0.12 | 0.03 | 58 | 1012.9 |
| 20260905193006 | 94 | 229 | 0.0 | 3.0 | 0.00 | 0.12 | 0.03 | 57 | 1012.8 |
| 20260905192805 | 94 | 227 | 2.0 | 5.0 | 0.00 | 0.12 | 0.03 | 56 | 1012.9 |
| 20260905192309 | 93 | 335 | 1.0 | 5.0 | 0.00 | 0.12 | 0.03 | 57 | 1012.9 |
| 20260905191807 | 93 | 39 | 1.0 | 4.0 | 0.00 | 0.12 | 0.03 | 57 | 1013.0 |
| 20260905191505 | 93 | 215 | 1.0 | 4.0 | 0.00 | 0.12 | 0.03 | 58 | 1013.1 |
| 20260905191312 | 93 | 224 | 1.0 | 4.0 | 0.00 | 0.12 | 0.03 | 61 | 1013.1 |
| 20260905190815 | 92 | 227 | 2.0 | 4.0 | 0.00 | 0.12 | 0.03 | 58 | 1013.2 |
| 20260905190323 | 92 | 110 | 2.0 | 4.0 | 0.00 | 0.12 | 0.03 | 60 | 1013.4 |
| 20260905190031 | 91 | 349 | 0.0 | 3.0 | 0.00 | 0.12 | 0.03 | 63 | 1013.5 |
| 20260905185825 | 91 | 245 | 0.0 | 4.0 | 0.00 | 1.18 | 0.03 | 62 | 1013.6 |
| 20260905185330 | 91 | 233 | 1.0 | 4.0 | 0.00 | 1.18 | 0.03 | 63 | 1013.5 |
| 20260905184834 | 92 | 104 | 1.0 | 4.0 | 0.00 | 1.18 | 0.03 | 62 | 1013.4 |
| 20260905184513 | 91 | 63 | 0.0 | 4.0 | 0.00 | 1.18 | 0.03 | 65 | 1013.4 |
| 20260905184316 | 92 | 287 | 0.0 | 3.0 | 0.00 | 1.18 | 0.03 | 63 | 1013.5 |
| 20260905183814 | 91 | 119 | 1.0 | 3.0 | 0.00 | 1.18 | 0.03 | 67 | 1013.4 |
| 20260905183321 | 90 | 214 | 0.0 | 4.0 | 0.00 | 1.18 | 0.03 | 68 | 1013.5 |
| 20260905183023 | 89 | 68 | 0.0 | 4.0 | 0.00 | 1.18 | 0.03 | 68 | 1013.5 |
| 20260905182825 | 89 | 127 | 1.0 | 4.0 | 0.00 | 1.18 | 0.03 | 67 | 1013.6 |
| 20260905182326 | 88 | 193 | 0.0 | 3.0 | 0.01 | 1.18 | 0.03 | 71 | 1013.6 |
| 20260905181830 | 88 | 237 | 0.0 | 1.0 | 0.02 | 1.18 | 0.03 | 72 | 1013.8 |
| 20260905181645 | 87 | 115 | 0.0 | 1.0 | 0.02 | 1.18 | 0.03 | 71 | 1013.7 |
| 20260905181325 | 87 | 92 | 0.0 | 1.0 | 0.03 | 1.18 | 0.03 | 75 | 1013.9 |
| 20260905180827 | 86 | 248 | 0.0 | 1.0 | 0.03 | 1.18 | 0.03 | 75 | 1014.1 |
| 20260905180310 | 85 | 240 | 0.0 | 2.0 | 0.03 | 1.18 | 0.03 | 74 | 1014.0 |
| 20260905180011 | 85 | 244 | 0.0 | 2.0 | 0.03 | 1.18 | 0.03 | 74 | 1014.0 |
| 20260905175814 | 85 | 243 | 0.0 | 2.0 | 0.03 | 2.26 | 0.03 | 76 | 1014.0 |
| 20260905175318 | 84 | 205 | 0.0 | 3.0 | 0.03 | 2.26 | 0.03 | 78 | 1014.0 |
| 20260905174817 | 84 | 243 | 1.0 | 3.0 | 0.03 | 2.26 | 0.03 | 77 | 1014.1 |
| 20260905174547 | 83 | 286 | 1.0 | 2.0 | 0.03 | 2.25 | 0.03 | 78 | 1014.2 |
| 20260905174314 | 83 | 243 | 1.0 | 2.0 | 0.03 | 2.26 | 0.03 | 78 | 1014.1 |
| 20260905173334 | 82 | 234 | 2.0 | 3.0 | 0.03 | 2.26 | 0.03 | 77 | 1014.2 |
| 20260905173017 | 82 | 229 | 1.0 | 3.0 | 0.03 | 2.25 | 0.03 | 76 | 1014.3 |
| 20260905172816 | 83 | 235 | 2.0 | 3.0 | 0.03 | 2.26 | 0.03 | 77 | 1014.3 |
| 20260905172320 | 84 | 240 | 1.0 | 3.0 | 0.02 | 2.25 | 0.02 | 77 | 1014.4 |
| 20260905171824 | 85 | 234 | 1.0 | 3.0 | 0.01 | 2.24 | 0.01 | 74 | 1014.4 |
| 20260905171527 | 85 | 224 | 1.0 | 4.0 | 0.00 | 2.23 | 0.00 | 72 | 1014.5 |
| 20260905171309 | 86 | 226 | 2.0 | 4.0 | 0.00 | 2.23 | 0.00 | 71 | 1014.5 |
| 20260905170828 | 87 | 224 | 1.0 | 9.0 | 0.00 | 2.23 | 0.00 | 68 | 1014.6 |
| 20260905170311 | 88 | 224 | 3.0 | 9.0 | 0.00 | 2.23 | 0.00 | 66 | 1014.7 |
| 20260905170105 | 88 | 248 | 4.0 | 9.0 | 0.00 | 2.23 | 0.00 | 63 | 1014.7 |
| 20260905165319 | 91 | 238 | 4.0 | 9.0 | 0.00 | 2.23 | 0.00 | 61 | 1014.8 |
| 20260905164823 | 92 | 238 | 2.0 | 6.0 | 0.00 | 2.23 | 0.00 | 60 | 1014.6 |
| 20260905164602 | 92 | 248 | 2.0 | 5.0 | 0.00 | 2.23 | 0.00 | 58 | 1014.6 |
| 20260905164307 | 93 | 43 | 1.0 | 4.0 | 0.00 | 2.23 | 0.00 | 60 | 1014.6 |
| 20260905163810 | 93 | 79 | 2.0 | 6.0 | 0.00 | 2.23 | 0.00 | 59 | 1014.5 |
| 20260905163314 | 94 | 118 | 1.0 | 3.0 | 0.00 | 2.23 | 0.00 | 56 | 1014.7 |
| 20260905163058 | 94 | 33 | 0.0 | 3.0 | 0.00 | 2.23 | 0.00 | 56 | 1014.8 |
| 20260905162819 | 94 | 333 | 0.0 | 3.0 | 0.00 | 2.23 | 0.00 | 56 | 1014.8 |
| 20260905162323 | 94 | 53 | 1.0 | 4.0 | 0.00 | 2.23 | 0.00 | 57 | 1014.9 |
| 20260905161806 | 93 | 214 | 2.0 | 4.0 | 0.00 | 2.23 | 0.00 | 61 | 1015.0 |
| 20260905161559 | 92 | 59 | 0.0 | 4.0 | 0.00 | 2.23 | 0.00 | 61 | 1015.0 |
| 20260905161311 | 92 | 111 | 0.0 | 4.0 | 0.00 | 2.23 | 0.00 | 61 | 1015.0 |
| 20260905160814 | 92 | 221 | 1.0 | 4.0 | 0.00 | 2.23 | 0.00 | 58 | 1015.2 |
| 20260905160318 | 92 | 65 | 0.0 | 3.0 | 0.00 | 2.23 | 0.00 | 61 | 1015.2 |
| 20260905160108 | 91 | 238 | 0.0 | 3.0 | 0.00 | 2.23 | 0.00 | 60 | 1015.3 |
| 20260905155818 | 92 | 241 | 1.0 | 3.0 | 0.00 | 2.38 | 0.00 | 60 | 1015.3 |
| 20260905155323 | 92 | 222 | 0.0 | 2.0 | 0.00 | 2.38 | 0.00 | 61 | 1015.3 |
| 20260905154808 | 92 | 34 | 0.0 | 5.0 | 0.00 | 2.38 | 0.00 | 63 | 1015.4 |
| 20260905154643 | 91 | 134 | 0.0 | 5.0 | 0.00 | 2.38 | 0.00 | 66 | 1015.5 |
| 20260905154313 | 91 | 94 | 2.0 | 5.0 | 0.00 | 2.38 | 0.00 | 64 | 1015.4 |
| 20260905153816 | 91 | 45 | 0.0 | 3.0 | 0.00 | 2.38 | 0.00 | 65 | 1015.3 |
| 20260905153319 | 91 | 71 | 0.0 | 3.0 | 0.00 | 2.38 | 0.00 | 64 | 1015.4 |
| 20260905153101 | 91 | 108 | 1.0 | 3.0 | 0.00 | 2.38 | 0.00 | 65 | 1015.5 |
| 20260905152804 | 91 | 96 | 0.0 | 3.0 | 0.00 | 2.38 | 0.00 | 69 | 1015.4 |
| 20260905152309 | 90 | 32 | 0.0 | 4.0 | 0.00 | 2.38 | 0.00 | 68 | 1015.5 |
| 20260905151812 | 90 | 229 | 2.0 | 4.0 | 0.00 | 2.38 | 0.00 | 66 | 1015.5 |
| 20260905151603 | 90 | 91 | 0.0 | 0.0 | 0.00 | 2.38 | 0.00 | 68 | 1015.5 |
| 20260905151316 | 90 | 227 | 0.0 | 0.0 | 0.00 | 2.38 | 0.00 | 68 | 1015.4 |
| 20260905150821 | 90 | 136 | 0.0 | 2.0 | 0.00 | 2.38 | 0.00 | 70 | 1015.4 |
| 20260905150305 | 89 | 49 | 0.0 | 2.0 | 0.00 | 2.38 | 0.00 | 71 | 1015.5 |
| 20260905150108 | 88 | 92 | 0.0 | 4.0 | 0.00 | 2.38 | 0.00 | 73 | 1015.4 |
| 20260905145810 | 88 | 307 | 0.0 | 4.0 | 0.00 | 2.38 | 0.00 | 73 | 1015.4 |
| 20260905145314 | 88 | 242 | 1.0 | 4.0 | 0.00 | 2.38 | 0.00 | 74 | 1015.4 |
| 20260905144819 | 87 | 47 | 0.0 | 3.0 | 0.00 | 2.38 | 0.00 | 76 | 1015.2 |
| 20260905144502 | 86 | 214 | 0.0 | 3.0 | 0.00 | 2.38 | 0.00 | 77 | 1015.2 |
| 20260905144323 | 86 | 11 | 0.0 | 3.0 | 0.00 | 2.38 | 0.00 | 80 | 1015.2 |
| 20260905143806 | 85 | 250 | 0.0 | 2.0 | 0.00 | 2.38 | 0.00 | 79 | 1015.4 |
| 20260905143307 | 85 | 49 | 0.0 | 2.0 | 0.00 | 2.38 | 0.00 | 84 | 1015.4 |
| 20260905143002 | 83 | 225 | 0.0 | 2.0 | 0.00 | 2.38 | 0.00 | 83 | 1015.3 |
| 20260905142811 | 84 | 243 | 1.0 | 2.0 | 0.00 | 2.38 | 0.00 | 84 | 1015.3 |
| 20260905142309 | 83 | 13 | 0.0 | 2.0 | 0.00 | 2.38 | 0.00 | 88 | 1015.3 |
| 20260905141807 | 82 | 240 | 0.0 | 1.0 | 0.00 | 2.38 | 0.00 | 89 | 1015.3 |
| 20260905141545 | 81 | 267 | 0.0 | 1.0 | 0.00 | 2.38 | 0.00 | 90 | 1015.4 |
| 20260905141320 | 81 | 273 | 0.0 | 1.0 | 0.00 | 2.38 | 0.00 | 90 | 1015.2 |
| 20260905140826 | 80 | 274 | 0.0 | 0.0 | 0.00 | 2.38 | 0.00 | 90 | 1015.1 |
| 20260905140328 | 80 | 275 | 0.0 | 1.0 | 0.00 | 2.38 | 0.00 | 92 | 1015.2 |
| 20260905140027 | 78 | 245 | 0.0 | 1.0 | 0.00 | 2.38 | 0.00 | 91 | 1015.2 |
| 20260905135823 | 78 | 245 | 0.0 | 1.0 | 0.00 | 2.38 | 0.00 | 91 | 1015.2 |
| 20260905135328 | 78 | 125 | 0.0 | 1.0 | 0.00 | 2.38 | 0.00 | 91 | 1015.1 |
| 20260905134810 | 78 | 123 | 0.0 | 3.0 | 0.00 | 2.38 | 0.00 | 91 | 1015.2 |
| 20260905134512 | 77 | 124 | 0.0 | 3.0 | 0.00 | 2.38 | 0.00 | 91 | 1015.2 |
| 20260905134315 | 77 | 123 | 0.0 | 3.0 | 0.00 | 2.38 | 0.00 | 91 | 1015.1 |
| 20260905133809 | 77 | 107 | 0.0 | 0.0 | 0.00 | 2.38 | 0.00 | 91 | 1015.2 |
| 20260905133314 | 77 | 107 | 0.0 | 0.0 | 0.00 | 2.38 | 0.00 | 91 | 1015.3 |
| 20260905133040 | 77 | 107 | 0.0 | 1.0 | 0.00 | 2.38 | 0.00 | 91 | 1015.3 |
| 20260905132840 | 77 | 106 | 0.0 | 1.0 | 0.00 | 2.38 | 0.00 | 91 | 1015.4 |
| 20260905132317 | 77 | 107 | 0.0 | 1.0 | 0.00 | 2.38 | 0.00 | 91 | 1015.5 |
| 20260905131818 | 77 | 107 | 0.0 | 0.0 | 0.00 | 2.38 | 0.00 | 91 | 1015.6 |
| 20260905131552 | 76 | 107 | 0.0 | 1.0 | 0.00 | 2.38 | 0.00 | 91 | 1015.5 |
| 20260905131317 | 77 | 107 | 0.0 | 1.0 | 0.00 | 2.38 | 0.00 | 91 | 1015.6 |
| 20260905130821 | 77 | 107 | 0.0 | 1.0 | 0.00 | 2.38 | 0.00 | 90 | 1015.6 |
| 20260905130326 | 77 | 107 | 0.0 | 0.0 | 0.00 | 2.38 | 0.00 | 91 | 1015.6 |
| 20260905130032 | 76 | 107 | 0.0 | 0.0 | 0.00 | 2.38 | 0.00 | 90 | 1015.4 |
| 20260905125824 | 77 | 107 | 0.0 | 0.0 | 0.00 | 2.38 | 0.00 | 90 | 1015.4 |
| 20260905125308 | 77 | 107 | 0.0 | 0.0 | 0.00 | 2.38 | 0.00 | 90 | 1015.4 |
| 20260905124810 | 77 | 107 | 0.0 | 1.0 | 0.00 | 2.38 | 0.00 | 90 | 1015.4 |
| 20260905124515 | 76 | 107 | 0.0 | 2.0 | 0.00 | 2.38 | 0.00 | 90 | 1015.6 |
| 20260905124315 | 77 | 106 | 0.0 | 2.0 | 0.00 | 2.38 | 0.00 | 90 | 1015.6 |
| 20260905123836 | 77 | 106 | 1.0 | 2.0 | 0.00 | 2.38 | 0.00 | 90 | 1015.7 |
| 20260905123311 | 77 | 63 | 0.0 | 2.0 | 0.00 | 2.38 | 0.00 | 90 | 1015.4 |
| 20260905123041 | 76 | 146 | 0.0 | 2.0 | 0.00 | 2.38 | 0.00 | 90 | 1015.4 |
| 20260905122815 | 77 | 22 | 0.0 | 1.0 | 0.00 | 2.38 | 0.00 | 90 | 1015.5 |
| 20260905122319 | 77 | 22 | 0.0 | 6.0 | 0.00 | 2.38 | 0.00 | 91 | 1015.4 |
| 20260905121825 | 77 | 4 | 1.0 | 6.0 | 0.00 | 2.38 | 0.00 | 91 | 1015.5 |
| 20260905121526 | 76 | 332 | 0.0 | 1.0 | 0.00 | 2.38 | 0.00 | 91 | 1015.6 |
| 20260905121327 | 77 | 236 | 0.0 | 1.0 | 0.00 | 2.38 | 0.00 | 91 | 1015.5 |
| 20260905120831 | 77 | 236 | 0.0 | 1.0 | 0.00 | 2.38 | 0.00 | 91 | 1015.3 |
| 20260905120315 | 77 | 146 | 0.0 | 1.0 | 0.00 | 2.38 | 0.00 | 91 | 1015.1 |
| 20260905120013 | 76 | 114 | 0.0 | 0.0 | 0.00 | 2.38 | 0.00 | 91 | 1014.9 |
| 20260905115819 | 77 | 113 | 0.0 | 0.0 | 0.00 | 2.38 | 0.00 | 91 | 1014.9 |
| 20260905115316 | 77 | 113 | 0.0 | 0.0 | 0.00 | 2.38 | 0.00 | 90 | 1014.8 |
| 20260905114818 | 77 | 113 | 0.0 | 0.0 | 0.00 | 2.38 | 0.00 | 90 | 1014.9 |
| 20260905114537 | 77 | 113 | 0.0 | 0.0 | 0.00 | 2.38 | 0.00 | 90 | 1014.9 |
| 20260905114317 | 77 | 113 | 0.0 | 0.0 | 0.00 | 2.38 | 0.00 | 91 | 1014.9 |
| 20260905113817 | 78 | 113 | 0.0 | 1.0 | 0.00 | 2.38 | 0.00 | 91 | 1015.0 |
| 20260905113331 | 77 | 113 | 0.0 | 1.0 | 0.00 | 2.38 | 0.00 | 91 | 1014.9 |
| 20260905113016 | 77 | 188 | 0.0 | 1.0 | 0.00 | 2.38 | 0.00 | 91 | 1014.8 |
| 20260905112815 | 77 | 188 | 0.0 | 1.0 | 0.00 | 2.38 | 0.00 | 91 | 1014.8 |
| 20260905112319 | 77 | 65 | 0.0 | 0.0 | 0.00 | 2.38 | 0.00 | 91 | 1014.6 |
| 20260905111821 | 77 | 65 | 0.0 | 0.0 | 0.00 | 2.38 | 0.00 | 91 | 1014.6 |
| 20260905111518 | 77 | 65 | 0.0 | 0.0 | 0.00 | 2.38 | 0.00 | 91 | 1014.7 |
| 20260905111306 | 77 | 65 | 0.0 | 0.0 | 0.00 | 2.38 | 0.00 | 91 | 1014.7 |
| 20260905110808 | 77 | 65 | 0.0 | 0.0 | 0.00 | 2.38 | 0.00 | 91 | 1014.5 |
| 20260905110312 | 77 | 65 | 0.0 | 0.0 | 0.00 | 2.38 | 0.00 | 91 | 1014.4 |
| 20260905110013 | 76 | 65 | 0.0 | 0.0 | 0.00 | 2.38 | 0.00 | 91 | 1014.5 |
| 20260905105817 | 77 | 65 | 0.0 | 0.0 | 0.00 | 2.38 | 0.00 | 91 | 1014.4 |
| 20260905105321 | 77 | 65 | 0.0 | 0.0 | 0.00 | 2.38 | 0.00 | 91 | 1014.4 |
| 20260905104806 | 77 | 65 | 0.0 | 0.0 | 0.00 | 2.38 | 0.00 | 91 | 1014.4 |
| 20260905104519 | 76 | 65 | 0.0 | 0.0 | 0.00 | 2.38 | 0.00 | 91 | 1014.4 |
| 20260905104310 | 77 | 65 | 0.0 | 0.0 | 0.00 | 2.38 | 0.00 | 91 | 1014.3 |
| 20260905103815 | 77 | 65 | 0.0 | 0.0 | 0.00 | 2.38 | 0.00 | 91 | 1014.2 |
| 20260905103338 | 77 | 65 | 0.0 | 0.0 | 0.00 | 2.38 | 0.00 | 91 | 1014.1 |
| 20260905103041 | 76 | 65 | 0.0 | 0.0 | 0.00 | 2.38 | 0.00 | 91 | 1014.1 |
| 20260905102840 | 77 | 65 | 0.0 | 0.0 | 0.00 | 2.38 | 0.00 | 91 | 1014.1 |
| 20260905102331 | 77 | 65 | 0.0 | 0.0 | 0.00 | 2.38 | 0.00 | 91 | 1014.2 |
| 20260905101815 | 77 | 65 | 0.0 | 0.0 | 0.00 | 2.38 | 0.00 | 91 | 1014.2 |
| 20260905101509 | 76 | 65 | 0.0 | 0.0 | 0.00 | 2.38 | 0.00 | 91 | 1014.2 |
| 20260905101319 | 77 | 65 | 0.0 | 0.0 | 0.00 | 2.38 | 0.00 | 91 | 1014.1 |
| 20260905100817 | 77 | 65 | 0.0 | 0.0 | 0.00 | 2.38 | 0.00 | 91 | 1014.1 |
| 20260905100314 | 77 | 65 | 0.0 | 0.0 | 0.00 | 2.38 | 0.00 | 91 | 1014.0 |
| 20260905100026 | 76 | 65 | 0.0 | 0.0 | 0.00 | 2.38 | 0.00 | 91 | 1014.0 |
| 20260905095819 | 77 | 65 | 0.0 | 0.0 | 0.00 | 2.39 | 0.00 | 91 | 1013.9 |
| 20260905095316 | 77 | 65 | 0.0 | 0.0 | 0.00 | 2.39 | 0.00 | 91 | 1013.9 |
| 20260905094843 | 77 | 65 | 0.0 | 0.0 | 0.00 | 2.39 | 0.00 | 91 | 1013.9 |
| 20260905094520 | 76 | 65 | 0.0 | 0.0 | 0.00 | 2.39 | 0.00 | 91 | 1013.9 |
| 20260905094307 | 77 | 65 | 0.0 | 0.0 | 0.00 | 2.39 | 0.00 | 91 | 1013.8 |
| 20260905093808 | 77 | 65 | 0.0 | 0.0 | 0.00 | 2.39 | 0.00 | 91 | 1013.8 |
| 20260905093310 | 77 | 65 | 0.0 | 0.0 | 0.00 | 2.39 | 0.00 | 91 | 1013.8 |
| 20260905093015 | 76 | 65 | 0.0 | 0.0 | 0.00 | 2.39 | 0.00 | 91 | 1013.8 |
| 20260905092814 | 77 | 65 | 0.0 | 0.0 | 0.00 | 2.39 | 0.00 | 91 | 1013.8 |
| 20260905092318 | 77 | 65 | 0.0 | 0.0 | 0.00 | 2.39 | 0.00 | 91 | 1013.8 |
| 20260905091841 | 77 | 65 | 0.0 | 0.0 | 0.00 | 2.39 | 0.00 | 90 | 1013.8 |
| 20260905091547 | 76 | 65 | 0.0 | 0.0 | 0.00 | 2.39 | 0.00 | 91 | 1013.7 |
| 20260905091318 | 77 | 65 | 0.0 | 0.0 | 0.00 | 2.39 | 0.00 | 91 | 1013.7 |
| 20260905090825 | 77 | 65 | 0.0 | 0.0 | 0.00 | 2.39 | 0.00 | 91 | 1013.8 |
| 20260905090329 | 77 | 65 | 0.0 | 0.0 | 0.00 | 2.39 | 0.00 | 91 | 1013.7 |
| 20260905090031 | 77 | 65 | 0.0 | 0.0 | 0.00 | 2.39 | 0.00 | 91 | 1013.7 |
| 20260905085832 | 77 | 65 | 0.0 | 0.0 | 0.00 | 2.39 | 0.00 | 91 | 1013.6 |
| 20260905085336 | 77 | 65 | 0.0 | 0.0 | 0.00 | 2.39 | 0.00 | 91 | 1013.7 |
| 20260905084819 | 77 | 65 | 0.0 | 0.0 | 0.00 | 2.39 | 0.00 | 91 | 1013.8 |
| 20260905084605 | 77 | 65 | 0.0 | 0.0 | 0.00 | 2.39 | 0.00 | 91 | 1013.7 |
| 20260905084317 | 77 | 65 | 0.0 | 0.0 | 0.00 | 2.39 | 0.00 | 91 | 1013.8 |
| 20260905083814 | 77 | 65 | 0.0 | 0.0 | 0.00 | 2.39 | 0.00 | 91 | 1013.8 |
| 20260905083344 | 77 | 65 | 0.0 | 0.0 | 0.00 | 2.39 | 0.00 | 91 | 1013.9 |
| 20260905083019 | 76 | 65 | 0.0 | 0.0 | 0.00 | 2.39 | 0.00 | 91 | 1013.9 |
| 20260905082825 | 77 | 65 | 0.0 | 0.0 | 0.00 | 2.39 | 0.00 | 90 | 1013.9 |
| 20260905082332 | 77 | 65 | 0.0 | 0.0 | 0.00 | 2.39 | 0.00 | 90 | 1013.8 |
| 20260905081816 | 77 | 65 | 0.0 | 0.0 | 0.00 | 2.39 | 0.00 | 90 | 1013.8 |
| 20260905081513 | 77 | 65 | 0.0 | 0.0 | 0.00 | 2.39 | 0.00 | 90 | 1013.8 |
| 20260905081320 | 77 | 65 | 0.0 | 0.0 | 0.00 | 2.39 | 0.00 | 90 | 1013.8 |
| 20260905080837 | 77 | 65 | 0.0 | 0.0 | 0.00 | 2.39 | 0.00 | 91 | 1013.9 |
| 20260905080321 | 77 | 65 | 0.0 | 0.0 | 0.00 | 2.39 | 0.00 | 91 | 1013.9 |
| 20260905080023 | 77 | 65 | 0.0 | 0.0 | 0.00 | 2.39 | 0.00 | 91 | 1013.9 |
| 20260905075805 | 77 | 65 | 0.0 | 0.0 | 0.00 | 2.39 | 0.00 | 91 | 1014.0 |
| 20260905075307 | 77 | 65 | 0.0 | 0.0 | 0.00 | 2.39 | 0.00 | 91 | 1013.9 |
| 20260905074810 | 77 | 65 | 0.0 | 0.0 | 0.00 | 2.39 | 0.00 | 90 | 1014.0 |
| 20260905074520 | 77 | 65 | 0.0 | 0.0 | 0.00 | 2.39 | 0.00 | 90 | 1014.0 |
| 20260905074315 | 77 | 65 | 0.0 | 0.0 | 0.00 | 2.39 | 0.00 | 91 | 1014.1 |
| 20260905073838 | 77 | 65 | 0.0 | 0.0 | 0.00 | 2.39 | 0.00 | 91 | 1014.0 |
| 20260905073320 | 77 | 65 | 0.0 | 0.0 | 0.00 | 2.39 | 0.00 | 90 | 1014.0 |
| 20260905073047 | 77 | 65 | 0.0 | 0.0 | 0.00 | 2.39 | 0.00 | 91 | 1014.0 |
| 20260905072818 | 77 | 65 | 0.0 | 0.0 | 0.00 | 2.39 | 0.00 | 91 | 1014.0 |
| 20260905072321 | 77 | 65 | 0.0 | 0.0 | 0.00 | 2.39 | 0.00 | 90 | 1013.9 |
| 20260905071824 | 77 | 65 | 0.0 | 0.0 | 0.00 | 2.39 | 0.00 | 91 | 1014.1 |
| 20260905071549 | 77 | 65 | 0.0 | 0.0 | 0.00 | 2.39 | 0.00 | 90 | 1014.1 |
| 20260905071308 | 78 | 65 | 0.0 | 0.0 | 0.00 | 2.39 | 0.00 | 90 | 1014.1 |
| 20260905070840 | 78 | 65 | 0.0 | 0.0 | 0.00 | 2.39 | 0.00 | 91 | 1014.3 |
| 20260905070343 | 78 | 65 | 0.0 | 0.0 | 0.00 | 2.39 | 0.00 | 91 | 1014.3 |
| 20260905065806 | 78 | 65 | 0.0 | 0.0 | 0.00 | 2.39 | 0.00 | 90 | 1014.3 |
| 20260905065311 | 78 | 65 | 0.0 | 0.0 | 0.00 | 2.39 | 0.00 | 90 | 1014.2 |
| 20260905064815 | 78 | 65 | 0.0 | 0.0 | 0.00 | 2.39 | 0.00 | 90 | 1014.3 |
| 20260905064501 | 77 | 65 | 0.0 | 0.0 | 0.00 | 2.39 | 0.00 | 90 | 1014.3 |
| 20260905064316 | 78 | 65 | 0.0 | 0.0 | 0.00 | 2.39 | 0.00 | 90 | 1014.4 |
| 20260905063820 | 78 | 65 | 0.0 | 0.0 | 0.00 | 2.39 | 0.00 | 90 | 1014.4 |
| 20260905063312 | 78 | 65 | 0.0 | 0.0 | 0.00 | 2.39 | 0.00 | 90 | 1014.5 |
| 20260905063058 | 77 | 65 | 0.0 | 0.0 | 0.00 | 2.39 | 0.00 | 90 | 1014.6 |
| 20260905062811 | 78 | 65 | 0.0 | 0.0 | 0.00 | 2.39 | 0.00 | 90 | 1014.7 |
| 20260905062315 | 78 | 65 | 0.0 | 0.0 | 0.00 | 2.39 | 0.00 | 90 | 1014.8 |
| 20260905061819 | 78 | 65 | 0.0 | 0.0 | 0.00 | 2.39 | 0.00 | 90 | 1014.9 |
| 20260905061558 | 78 | 65 | 0.0 | 0.0 | 0.00 | 2.39 | 0.00 | 90 | 1015.0 |
| 20260905061317 | 78 | 65 | 0.0 | 0.0 | 0.00 | 2.39 | 0.00 | 90 | 1015.1 |
| 20260905060850 | 78 | 65 | 0.0 | 0.0 | 0.00 | 2.39 | 0.00 | 90 | 1015.1 |
| 20260905060315 | 78 | 65 | 0.0 | 0.0 | 0.00 | 2.39 | 0.00 | 90 | 1015.1 |
| 20260905060039 | 78 | 65 | 0.0 | 0.0 | 0.00 | 2.39 | 0.00 | 90 | 1015.1 |
| 20260905055818 | 78 | 65 | 0.0 | 0.0 | 0.00 | 2.39 | 0.00 | 90 | 1015.2 |
| 20260905055320 | 78 | 65 | 0.0 | 0.0 | 0.00 | 2.39 | 0.00 | 90 | 1015.2 |
| 20260905054825 | 78 | 65 | 0.0 | 0.0 | 0.00 | 2.39 | 0.00 | 90 | 1015.3 |
| 20260905054524 | 78 | 65 | 0.0 | 0.0 | 0.00 | 2.39 | 0.00 | 90 | 1015.3 |
| 20260905054330 | 78 | 65 | 0.0 | 0.0 | 0.00 | 2.39 | 0.00 | 90 | 1015.2 |
| 20260905053814 | 78 | 65 | 0.0 | 0.0 | 0.00 | 2.39 | 0.00 | 90 | 1015.3 |
| 20260905053314 | 78 | 65 | 0.0 | 0.0 | 0.00 | 2.39 | 0.00 | 90 | 1015.4 |
| 20260905053048 | 78 | 65 | 0.0 | 0.0 | 0.00 | 2.39 | 0.00 | 90 | 1015.4 |
| 20260905052812 | 78 | 65 | 0.0 | 0.0 | 0.00 | 2.39 | 0.00 | 90 | 1015.4 |
| 20260905052338 | 78 | 65 | 0.0 | 0.0 | 0.00 | 2.39 | 0.00 | 90 | 1015.4 |
| 20260905051822 | 78 | 65 | 0.0 | 0.0 | 0.00 | 2.39 | 0.00 | 90 | 1015.4 |
| 20260905051526 | 78 | 65 | 0.0 | 0.0 | 0.00 | 2.39 | 0.00 | 90 | 1015.6 |
| 20260905051306 | 78 | 65 | 0.0 | 0.0 | 0.00 | 2.39 | 0.00 | 90 | 1015.6 |
| 20260905050811 | 78 | 65 | 0.0 | 0.0 | 0.00 | 2.39 | 0.00 | 90 | 1015.6 |
| 20260905050322 | 78 | 65 | 0.0 | 0.0 | 0.00 | 2.39 | 0.00 | 90 | 1015.6 |
| 20260905050018 | 77 | 65 | 0.0 | 0.0 | 0.00 | 2.39 | 0.00 | 90 | 1015.6 |
| 20260905045825 | 78 | 65 | 0.0 | 0.0 | 0.00 | 2.39 | 0.00 | 90 | 1015.6 |
| 20260905045311 | 78 | 65 | 0.0 | 0.0 | 0.00 | 2.39 | 0.00 | 90 | 1015.8 |
| 20260905044834 | 78 | 65 | 0.0 | 0.0 | 0.00 | 2.39 | 0.00 | 90 | 1015.8 |
| 20260905044604 | 77 | 65 | 0.0 | 0.0 | 0.00 | 2.39 | 0.00 | 90 | 1015.8 |
| 20260905044317 | 78 | 65 | 0.0 | 0.0 | 0.00 | 2.39 | 0.00 | 90 | 1015.7 |
| 20260905043814 | 78 | 65 | 0.0 | 0.0 | 0.00 | 2.39 | 0.00 | 90 | 1015.7 |
| 20260905043337 | 78 | 65 | 0.0 | 0.0 | 0.00 | 2.39 | 0.00 | 90 | 1015.6 |
| 20260905043057 | 77 | 65 | 0.0 | 0.0 | 0.00 | 2.39 | 0.00 | 90 | 1015.6 |
| 20260905042813 | 78 | 65 | 0.0 | 0.0 | 0.00 | 2.39 | 0.00 | 90 | 1015.6 |
| 20260905042311 | 78 | 65 | 0.0 | 0.0 | 0.00 | 2.39 | 0.00 | 90 | 1015.6 |
| 20260905041822 | 78 | 65 | 0.0 | 0.0 | 0.00 | 2.39 | 0.00 | 90 | 1015.6 |
| 20260905041521 | 77 | 65 | 0.0 | 0.0 | 0.00 | 2.39 | 0.00 | 90 | 1015.6 |
| 20260905041326 | 78 | 65 | 0.0 | 0.0 | 0.00 | 2.39 | 0.00 | 90 | 1015.7 |
| 20260905040831 | 78 | 65 | 0.0 | 0.0 | 0.00 | 2.39 | 0.00 | 90 | 1015.8 |
| 20260905040314 | 78 | 65 | 0.0 | 0.0 | 0.00 | 2.39 | 0.00 | 90 | 1015.8 |
| 20260905040023 | 77 | 65 | 0.0 | 0.0 | 0.00 | 2.39 | 0.00 | 90 | 1015.8 |
| 20260905035839 | 78 | 65 | 0.0 | 0.0 | 0.00 | 2.39 | 2.39 | 90 | 1015.8 |
| 20260905035323 | 78 | 65 | 0.0 | 0.0 | 0.00 | 2.39 | 2.39 | 90 | 1015.8 |
| 20260905034808 | 78 | 65 | 0.0 | 0.0 | 0.00 | 2.39 | 2.39 | 90 | 1015.7 |
| 20260905034506 | 77 | 65 | 0.0 | 0.0 | 0.00 | 2.39 | 2.39 | 90 | 1015.8 |
| 20260905034313 | 78 | 65 | 0.0 | 0.0 | 0.00 | 2.39 | 2.39 | 90 | 1015.8 |
| 20260905033817 | 78 | 65 | 0.0 | 0.0 | 0.00 | 2.39 | 2.39 | 90 | 1015.8 |
| 20260905033323 | 78 | 65 | 0.0 | 0.0 | 0.00 | 2.39 | 2.39 | 90 | 1015.8 |
| 20260905033006 | 77 | 65 | 0.0 | 0.0 | 0.00 | 2.39 | 2.39 | 90 | 1016.0 |
| 20260905032808 | 78 | 65 | 0.0 | 0.0 | 0.00 | 2.39 | 2.39 | 90 | 1016.0 |
| 20260905032308 | 78 | 65 | 0.0 | 0.0 | 0.00 | 2.39 | 2.39 | 90 | 1016.1 |
| 20260905031813 | 78 | 65 | 0.0 | 0.0 | 0.00 | 2.39 | 2.39 | 90 | 1016.1 |
| 20260905031515 | 77 | 65 | 0.0 | 0.0 | 0.00 | 2.39 | 2.39 | 90 | 1016.1 |
| 20260905031318 | 78 | 65 | 0.0 | 0.0 | 0.00 | 2.39 | 2.39 | 90 | 1016.1 |
| 20260905030822 | 78 | 65 | 0.0 | 0.0 | 0.00 | 2.39 | 2.39 | 90 | 1016.1 |
| 20260905030306 | 78 | 65 | 0.0 | 0.0 | 0.00 | 2.39 | 2.39 | 90 | 1016.2 |
| 20260905030010 | 78 | 65 | 0.0 | 0.0 | 0.00 | 2.39 | 2.39 | 90 | 1016.2 |
| 20260905025810 | 78 | 65 | 0.0 | 0.0 | 0.00 | 2.39 | 2.39 | 90 | 1016.2 |
| 20260905025314 | 78 | 65 | 0.0 | 0.0 | 0.00 | 2.39 | 2.39 | 90 | 1016.1 |
| 20260905024819 | 78 | 65 | 0.0 | 0.0 | 0.00 | 2.39 | 2.39 | 90 | 1016.3 |
| 20260905024609 | 78 | 65 | 0.0 | 0.0 | 0.00 | 2.39 | 2.39 | 90 | 1016.3 |
| 20260905024317 | 78 | 65 | 0.0 | 0.0 | 0.00 | 2.39 | 2.39 | 90 | 1016.3 |
| 20260905023820 | 78 | 65 | 0.0 | 0.0 | 0.00 | 2.39 | 2.39 | 90 | 1016.4 |
| 20260905023318 | 78 | 65 | 0.0 | 0.0 | 0.00 | 2.39 | 2.39 | 90 | 1016.3 |
| 20260905023027 | 78 | 65 | 0.0 | 0.0 | 0.00 | 2.39 | 2.39 | 90 | 1016.3 |
| 20260905022822 | 78 | 65 | 0.0 | 0.0 | 0.00 | 2.39 | 2.39 | 90 | 1016.3 |
| 20260905022306 | 78 | 65 | 0.0 | 0.0 | 0.00 | 2.39 | 2.39 | 89 | 1016.2 |
| 20260905021809 | 78 | 65 | 0.0 | 0.0 | 0.00 | 2.39 | 2.39 | 89 | 1016.1 |
| 20260905021506 | 78 | 65 | 0.0 | 0.0 | 0.00 | 2.39 | 2.39 | 89 | 1016.1 |
| 20260905021309 | 78 | 65 | 0.0 | 0.0 | 0.00 | 2.39 | 2.39 | 89 | 1016.2 |
| 20260905020814 | 78 | 65 | 0.0 | 0.0 | 0.00 | 2.39 | 2.39 | 89 | 1016.2 |
| 20260905020310 | 78 | 65 | 0.0 | 0.0 | 0.00 | 2.39 | 2.39 | 89 | 1016.2 |
| 20260905020053 | 78 | 65 | 0.0 | 0.0 | 0.00 | 2.39 | 2.39 | 89 | 1016.2 |
| 20260905015814 | 79 | 65 | 0.0 | 0.0 | 0.00 | 2.39 | 2.39 | 89 | 1016.1 |
| 20260905015319 | 79 | 65 | 0.0 | 0.0 | 0.00 | 2.39 | 2.39 | 90 | 1016.2 |
| 20260905014827 | 78 | 65 | 0.0 | 0.0 | 0.00 | 2.39 | 2.39 | 89 | 1016.1 |
| 20260905014537 | 78 | 65 | 0.0 | 0.0 | 0.00 | 2.39 | 2.39 | 89 | 1016.1 |
| 20260905014330 | 78 | 65 | 0.0 | 0.0 | 0.00 | 2.39 | 2.39 | 89 | 1016.0 |
| 20260905013833 | 78 | 65 | 0.0 | 0.0 | 0.00 | 2.39 | 2.39 | 89 | 1016.1 |
| 20260905013337 | 78 | 65 | 0.0 | 0.0 | 0.00 | 2.39 | 2.39 | 89 | 1016.1 |
| 20260905013011 | 78 | 65 | 0.0 | 0.0 | 0.00 | 2.39 | 2.39 | 89 | 1016.0 |
| 20260905012839 | 79 | 65 | 0.0 | 0.0 | 0.00 | 2.39 | 2.39 | 89 | 1016.0 |
| 20260905012343 | 79 | 65 | 0.0 | 0.0 | 0.00 | 2.39 | 2.39 | 89 | 1016.0 |
| 20260905011809 | 79 | 65 | 0.0 | 0.0 | 0.00 | 2.39 | 2.39 | 89 | 1016.0 |
| 20260905011502 | 78 | 65 | 0.0 | 0.0 | 0.00 | 2.39 | 2.39 | 89 | 1015.8 |
| 20260905011311 | 79 | 65 | 0.0 | 0.0 | 0.00 | 2.39 | 2.39 | 89 | 1015.9 |
| 20260905010816 | 79 | 65 | 0.0 | 0.0 | 0.00 | 2.39 | 2.39 | 89 | 1015.8 |
| 20260905010320 | 79 | 65 | 0.0 | 0.0 | 0.00 | 2.39 | 2.39 | 89 | 1015.8 |
| 20260905010029 | 78 | 65 | 0.0 | 0.0 | 0.00 | 2.39 | 2.39 | 89 | 1015.8 |
| 20260905005826 | 79 | 65 | 0.0 | 0.0 | 0.00 | 2.39 | 2.39 | 89 | 1015.7 |
| 20260905005330 | 79 | 65 | 0.0 | 0.0 | 0.00 | 2.39 | 2.39 | 89 | 1015.6 |
| 20260905004834 | 79 | 65 | 0.0 | 0.0 | 0.00 | 2.39 | 2.39 | 89 | 1015.5 |
| 20260905004530 | 78 | 65 | 0.0 | 0.0 | 0.00 | 2.39 | 2.39 | 89 | 1015.6 |
| 20260905004339 | 79 | 65 | 0.0 | 0.0 | 0.00 | 2.39 | 2.39 | 89 | 1015.5 |
| 20260905003815 | 79 | 65 | 0.0 | 0.0 | 0.00 | 2.39 | 2.39 | 89 | 1015.3 |
| 20260905003342 | 79 | 65 | 0.0 | 0.0 | 0.00 | 2.39 | 2.39 | 89 | 1015.2 |
| 20260905003021 | 78 | 65 | 0.0 | 0.0 | 0.00 | 2.39 | 2.39 | 89 | 1015.2 |
| 20260905002825 | 79 | 65 | 0.0 | 0.0 | 0.00 | 2.39 | 2.39 | 89 | 1015.1 |
| 20260905002325 | 79 | 65 | 0.0 | 0.0 | 0.00 | 2.39 | 2.39 | 89 | 1015.0 |
| 20260905001810 | 79 | 65 | 0.0 | 0.0 | 0.00 | 2.39 | 2.39 | 89 | 1015.0 |
| 20260905001518 | 79 | 65 | 0.0 | 0.0 | 0.00 | 2.39 | 2.39 | 89 | 1014.9 |
| 20260905001315 | 79 | 65 | 0.0 | 0.0 | 0.00 | 2.39 | 2.39 | 89 | 1014.8 |
| 20260905000837 | 79 | 65 | 0.0 | 0.0 | 0.00 | 2.39 | 2.39 | 89 | 1014.8 |
| 20260905000352 | 79 | 65 | 0.0 | 0.0 | 0.00 | 2.39 | 2.39 | 88 | 1014.6 |
| 20260905000038 | 79 | 65 | 0.0 | 0.0 | 0.00 | 2.39 | 2.39 | 88 | 1014.6 |
| 20260904235834 | 79 | 65 | 0.0 | 0.0 | 0.00 | 2.39 | 2.39 | 88 | 1014.6 |
| 20260904235318 | 79 | 65 | 0.0 | 0.0 | 0.00 | 2.39 | 2.39 | 88 | 1014.6 |
| 20260904234821 | 80 | 65 | 0.0 | 0.0 | 0.00 | 2.39 | 2.39 | 88 | 1014.5 |
| 20260904234523 | 79 | 65 | 0.0 | 0.0 | 0.00 | 2.39 | 2.39 | 88 | 1014.5 |
| 20260904234307 | 80 | 65 | 0.0 | 0.0 | 0.00 | 2.39 | 2.39 | 88 | 1014.5 |
| 20260904233809 | 80 | 65 | 0.0 | 0.0 | 0.00 | 2.39 | 2.39 | 88 | 1014.5 |
| 20260904233313 | 80 | 65 | 0.0 | 0.0 | 0.00 | 2.39 | 2.39 | 88 | 1014.6 |
| 20260904233008 | 79 | 65 | 0.0 | 0.0 | 0.00 | 2.39 | 2.39 | 88 | 1014.6 |
| 20260904232815 | 80 | 65 | 0.0 | 0.0 | 0.00 | 2.39 | 2.39 | 88 | 1014.5 |
| 20260904232319 | 80 | 65 | 0.0 | 0.0 | 0.00 | 2.39 | 2.39 | 88 | 1014.6 |
| 20260904231813 | 80 | 65 | 0.0 | 0.0 | 0.00 | 2.39 | 2.39 | 88 | 1014.6 |
| 20260904231559 | 79 | 65 | 0.0 | 0.0 | 0.00 | 2.39 | 2.39 | 88 | 1014.5 |
| 20260904231317 | 80 | 65 | 0.0 | 0.0 | 0.00 | 2.39 | 2.39 | 88 | 1014.6 |
| 20260904230843 | 80 | 65 | 0.0 | 0.0 | 0.00 | 2.39 | 2.39 | 88 | 1014.6 |
| 20260904230345 | 80 | 65 | 0.0 | 0.0 | 0.00 | 2.39 | 2.39 | 88 | 1014.6 |
| 20260904230112 | 79 | 65 | 0.0 | 0.0 | 0.00 | 2.39 | 2.39 | 88 | 1014.5 |
| 20260904225808 | 80 | 65 | 0.0 | 0.0 | 0.00 | 2.39 | 2.39 | 88 | 1014.6 |
| 20260904225312 | 80 | 65 | 0.0 | 0.0 | 0.00 | 2.39 | 2.39 | 88 | 1014.7 |
| 20260904224817 | 80 | 65 | 0.0 | 0.0 | 0.00 | 2.39 | 2.39 | 88 | 1014.7 |
| 20260904224500 | 79 | 65 | 0.0 | 0.0 | 0.00 | 2.39 | 2.39 | 88 | 1014.7 |
| 20260904224317 | 80 | 65 | 0.0 | 0.0 | 0.00 | 2.39 | 2.39 | 88 | 1014.6 |
| 20260904223815 | 80 | 65 | 0.0 | 0.0 | 0.00 | 2.39 | 2.39 | 88 | 1014.6 |
| 20260904223319 | 79 | 65 | 0.0 | 0.0 | 0.00 | 2.39 | 2.39 | 88 | 1014.7 |
| 20260904223031 | 79 | 262 | 0.0 | 0.0 | 0.00 | 2.39 | 2.39 | 88 | 1014.7 |
| 20260904222825 | 80 | 262 | 0.0 | 0.0 | 0.00 | 2.39 | 2.39 | 88 | 1014.8 |
| 20260904222328 | 79 | 262 | 0.0 | 0.0 | 0.00 | 2.39 | 2.39 | 88 | 1014.9 |
| 20260904221808 | 79 | 262 | 0.0 | 0.0 | 0.00 | 2.39 | 2.39 | 88 | 1014.8 |
| 20260904221511 | 79 | 262 | 0.0 | 0.0 | 0.00 | 2.39 | 2.39 | 88 | 1014.8 |
| 20260904221332 | 79 | 262 | 0.0 | 0.0 | 0.00 | 2.39 | 2.39 | 88 | 1014.8 |
| 20260904220815 | 79 | 262 | 0.0 | 0.0 | 0.00 | 2.39 | 2.39 | 88 | 1014.9 |
| 20260904220312 | 79 | 262 | 0.0 | 0.0 | 0.00 | 2.39 | 2.39 | 88 | 1014.9 |
| 20260904220022 | 79 | 262 | 0.0 | 0.0 | 0.00 | 2.39 | 2.39 | 88 | 1015.0 |
| 20260904215809 | 79 | 262 | 0.0 | 0.0 | 0.00 | 2.39 | 2.39 | 88 | 1015.1 |
| 20260904215341 | 79 | 262 | 0.0 | 0.0 | 0.00 | 2.39 | 2.39 | 88 | 1015.1 |
| 20260904214818 | 79 | 261 | 0.0 | 0.0 | 0.00 | 2.39 | 2.39 | 88 | 1015.1 |
| 20260904214529 | 78 | 261 | 0.0 | 0.0 | 0.01 | 2.39 | 2.39 | 88 | 1015.0 |
| 20260904214324 | 79 | 261 | 0.0 | 0.0 | 0.01 | 2.39 | 2.39 | 88 | 1015.0 |
| 20260904213829 | 79 | 261 | 0.0 | 0.0 | 0.01 | 2.39 | 2.39 | 88 | 1015.1 |
| 20260904212851 | 78 | 335 | 0.0 | 0.0 | 0.02 | 2.39 | 2.39 | 88 | 1015.1 |
| 20260904212315 | 78 | 335 | 0.0 | 0.0 | 0.02 | 2.39 | 2.39 | 88 | 1015.1 |
| 20260904211819 | 78 | 335 | 0.0 | 0.0 | 0.02 | 2.39 | 2.39 | 88 | 1015.2 |
| 20260904211522 | 78 | 335 | 0.0 | 0.0 | 0.02 | 2.39 | 2.39 | 88 | 1015.1 |
| 20260904211323 | 78 | 335 | 0.0 | 1.0 | 0.02 | 2.39 | 2.39 | 88 | 1015.1 |
| 20260904210826 | 78 | 335 | 0.0 | 5.0 | 0.02 | 2.39 | 2.39 | 88 | 1015.1 |
| 20260904210327 | 78 | 336 | 0.0 | 5.0 | 0.03 | 2.39 | 2.39 | 88 | 1015.0 |
| 20260904210019 | 77 | 335 | 0.0 | 0.0 | 0.03 | 2.39 | 2.39 | 88 | 1015.2 |
| 20260904205811 | 78 | 336 | 0.0 | 1.0 | 0.03 | 2.39 | 2.39 | 88 | 1015.2 |
| 20260904205316 | 78 | 336 | 0.0 | 1.0 | 0.03 | 2.39 | 2.39 | 87 | 1015.3 |
| 20260904204819 | 78 | 335 | 0.0 | 0.0 | 0.04 | 2.39 | 2.39 | 88 | 1015.3 |
| 20260904204522 | 77 | 335 | 0.0 | 0.0 | 0.03 | 2.38 | 2.38 | 88 | 1015.4 |
| 20260904204321 | 77 | 335 | 0.0 | 0.0 | 0.03 | 2.38 | 2.38 | 88 | 1015.3 |
| 20260904203818 | 77 | 335 | 0.0 | 0.0 | 0.03 | 2.38 | 2.38 | 87 | 1015.2 |
| 20260904203315 | 77 | 335 | 0.0 | 0.0 | 0.02 | 2.37 | 2.37 | 87 | 1015.5 |
| 20260904203050 | 77 | 335 | 0.0 | 0.0 | 0.02 | 2.37 | 2.37 | 87 | 1015.6 |
| 20260904202819 | 77 | 335 | 0.0 | 1.0 | 0.02 | 2.37 | 2.37 | 87 | 1015.6 |
| 20260904202345 | 77 | 335 | 0.0 | 1.0 | 0.02 | 2.37 | 2.37 | 87 | 1015.6 |
| 20260904201809 | 77 | 255 | 0.0 | 0.0 | 0.02 | 2.37 | 2.37 | 88 | 1015.5 |
| 20260904201533 | 77 | 255 | 0.0 | 0.0 | 0.03 | 2.37 | 2.37 | 87 | 1015.5 |
| 20260904201313 | 77 | 255 | 0.0 | 0.0 | 0.04 | 2.37 | 2.37 | 87 | 1015.5 |
| 20260904200818 | 77 | 255 | 0.0 | 0.0 | 0.05 | 2.37 | 2.37 | 87 | 1015.4 |
| 20260904200322 | 77 | 255 | 0.0 | 0.0 | 0.05 | 2.36 | 2.36 | 87 | 1015.6 |